Time,TemperatureF,DewpointF,PressureIn,WindDirection,WindDirectionDegrees,WindSpeedMPH,WindSpeedGustMPH,Humidity,HourlyPrecipIn,Conditions,Clouds,dailyrainin,SoftwareType,DateUTC
2013-01-17 00:10:00,31.9,30.6,29.85,South,174,2.0,8.0,95,0.00,OVC,,0.00,WeatherDisplay:10.37,2013-01-17 05:10:00,
2013-01-17 00:30:00,31.8,30.3,29.87,South,177,5.0,9.0,94,0.00,OVC,,0.00,WeatherDisplay:10.37,2013-01-17 05:30:00,
2013-01-17 00:40:00,31.8,30.3,29.87,South,175,7.0,14.0,94,0.00,OVC,,0.00,WeatherDisplay:10.37,2013-01-17 05:40:00,
2013-01-17 00:50:00,31.7,30.2,29.87,South,191,2.0,8.0,94,0.00,OVC,,0.00,WeatherDisplay:10.37,2013-01-17 05:50:00,
2013-01-17 01:00:00,31.7,30.2,29.88,SSE,160,2.0,11.0,94,0.00,OVC,,0.00,WeatherDisplay:10.37,2013-01-17 06:00:00,
2013-01-17 01:10:00,31.6,30.1,29.89,South,175,8.0,11.0,94,0.00,OVC,,0.00,WeatherDisplay:10.37,2013-01-17 06:10:00,
2013-01-17 01:20:00,31.6,30.1,29.89,SSE,168,3.0,9.0,94,0.00,OVC,,0.00,WeatherDisplay:10.37,2013-01-17 06:20:00,
2013-01-17 01:30:00,31.6,30.1,29.89,South,184,2.0,9.0,94,0.00,OVC,,0.00,WeatherDisplay:10.37,2013-01-17 06:30:00,
2013-01-17 01:40:00,31.5,30.0,29.90,SSE,164,5.0,9.0,94,0.00,OVC,,0.00,WeatherDisplay:10.37,2013-01-17 06:40:00,
2013-01-17 01:50:00,31.4,29.9,29.89,SE,146,3.0,8.0,94,0.00,OVC,,0.00,WeatherDisplay:10.37,2013-01-17 06:50:00,
2013-01-17 02:00:00,31.3,29.8,29.89,SSE,165,3.0,6.0,94,0.00,OVC,,0.00,WeatherDisplay:10.37,2013-01-17 07:00:00,
2013-01-17 02:10:00,31.2,29.7,29.89,South,170,0.0,6.0,94,0.00,OVC,,0.00,WeatherDisplay:10.37,2013-01-17 07:10:00,
2013-01-17 02:20:00,31.0,29.5,29.89,SSE,162,3.0,8.0,94,0.00,OVC,,0.00,WeatherDisplay:10.37,2013-01-17 07:20:00,
2013-01-17 02:30:00,30.9,29.4,29.89,SE,137,2.0,5.0,94,0.00,OVC,,0.00,WeatherDisplay:10.37,2013-01-17 07:30:00,
2013-01-17 02:40:00,30.7,29.2,29.88,SE,128,2.0,5.0,94,0.00,OVC,,0.00,WeatherDisplay:10.37,2013-01-17 07:40:00,
2013-01-17 02:50:00,30.5,29.0,29.88,SSE,158,2.0,6.0,94,0.00,OVC,,0.00,WeatherDisplay:10.37,2013-01-17 07:50:00,
2013-01-17 03:00:00,30.5,29.0,29.88,SSE,155,3.0,8.0,94,0.00,OVC,,0.00,WeatherDisplay:10.37,2013-01-17 08:00:00,
2013-01-17 03:10:00,30.3,28.8,29.87,SSE,156,1.0,5.0,94,0.00,OVC,,0.00,WeatherDisplay:10.37,2013-01-17 08:10:00,
2013-01-17 03:20:00,30.2,28.7,29.88,SSE,156,0.0,3.0,94,0.00,OVC,,0.00,WeatherDisplay:10.37,2013-01-17 08:20:00,
2013-01-17 03:30:00,30.0,28.2,29.88,SSE,156,0.0,5.0,93,0.00,OVC,,0.00,WeatherDisplay:10.37,2013-01-17 08:30:00,
2013-01-17 03:40:00,29.9,28.1,29.89,SSE,156,0.0,3.0,93,0.00,OVC,,0.00,WeatherDisplay:10.37,2013-01-17 08:40:00,
2013-01-17 03:50:00,29.9,28.1,29.88,SSE,156,1.0,5.0,93,0.00,OVC,,0.00,WeatherDisplay:10.37,2013-01-17 08:50:00,
2013-01-17 04:00:00,30.1,28.6,29.89,SE,146,0.0,5.0,94,0.00,OVC,,0.00,WeatherDisplay:10.37,2013-01-17 09:00:00,
2013-01-17 04:10:00,30.4,28.9,29.89,SSW,194,1.0,5.0,94,0.00,OVC,,0.00,WeatherDisplay:10.37,2013-01-17 09:10:00,
2013-01-17 04:20:00,30.6,29.1,29.89,SSE,161,2.0,5.0,94,0.00,OVC,,0.00,WeatherDisplay:10.37,2013-01-17 09:20:00,
2013-01-17 04:30:00,30.8,29.3,29.89,South,180,0.0,6.0,94,0.00,OVC,,0.00,WeatherDisplay:10.37,2013-01-17 09:30:00,
2013-01-17 04:40:00,31.0,29.2,29.89,SSW,193,1.0,5.0,93,0.00,OVC,,0.00,WeatherDisplay:10.37,2013-01-17 09:40:00,
2013-01-17 04:50:00,31.1,29.3,29.89,South,173,2.0,5.0,93,0.00,OVC,,0.00,WeatherDisplay:10.37,2013-01-17 09:50:00,
2013-01-17 05:00:00,31.2,29.4,29.89,SSE,150,1.0,5.0,93,0.00,OVC,,0.00,WeatherDisplay:10.37,2013-01-17 10:00:00,
2013-01-17 05:10:00,31.3,29.2,29.90,SE,146,1.0,3.0,92,0.00,OVC,,0.00,WeatherDisplay:10.37,2013-01-17 10:10:00,
2013-01-17 05:20:00,31.3,29.2,29.90,SE,146,1.0,3.0,92,0.00,OVC,,0.00,WeatherDisplay:10.37,2013-01-17 10:20:00,
2013-01-17 05:30:00,31.3,29.2,29.90,SE,142,3.0,3.0,92,0.00,OVC,,0.00,WeatherDisplay:10.37,2013-01-17 10:30:00,
2013-01-17 05:40:00,31.3,29.2,29.91,SE,136,0.0,3.0,92,0.00,OVC,,0.00,WeatherDisplay:10.37,2013-01-17 10:40:00,
2013-01-17 05:50:00,31.4,29.3,29.91,SE,136,0.0,3.0,92,0.00,OVC,,0.00,WeatherDisplay:10.37,2013-01-17 10:50:00,
2013-01-17 06:00:00,31.4,29.3,29.91,SE,136,1.0,3.0,92,0.00,OVC,,0.00,WeatherDisplay:10.37,2013-01-17 11:00:00,
2013-01-17 06:10:00,31.4,29.3,29.92,SE,136,0.0,2.0,92,0.00,OVC,,0.00,WeatherDisplay:10.37,2013-01-17 11:10:00,
2013-01-17 06:20:00,31.5,29.4,29.92,SE,136,0.0,0.0,92,0.00,OVC,,0.00,WeatherDisplay:10.37,2013-01-17 11:20:00,
2013-01-17 06:30:00,31.5,29.4,29.92,SE,136,0.0,0.0,92,0.00,OVC,,0.00,WeatherDisplay:10.37,2013-01-17 11:30:00,
2013-01-17 06:40:00,31.5,29.4,29.92,SE,136,0.0,3.0,92,0.00,OVC,,0.00,WeatherDisplay:10.37,2013-01-17 11:40:00,
2013-01-17 06:50:00,31.5,29.4,29.93,SE,136,0.0,0.0,92,0.00,OVC,,0.00,WeatherDisplay:10.37,2013-01-17 11:50:00,
2013-01-17 07:00:00,31.5,29.4,29.94,SSE,159,1.0,3.0,92,0.00,OVC,,0.00,WeatherDisplay:10.37,2013-01-17 12:00:00,
2013-01-17 07:10:00,31.7,29.4,29.94,SW,226,0.0,8.0,91,0.00,OVC,,0.00,WeatherDisplay:10.37,2013-01-17 12:10:00,
2013-01-17 07:20:00,32.0,29.7,29.95,SW,227,0.0,3.0,91,0.00,OVC,,0.00,WeatherDisplay:10.37,2013-01-17 12:20:00,
2013-01-17 07:30:00,32.3,29.6,29.96,SW,227,0.0,3.0,90,0.00,OVC,,0.00,WeatherDisplay:10.37,2013-01-17 12:30:00,
2013-01-17 07:40:00,32.5,29.9,29.96,SW,229,0.0,5.0,90,0.00,OVC,,0.00,WeatherDisplay:10.37,2013-01-17 12:40:00,
2013-01-17 07:50:00,32.8,29.9,29.97,WSW,254,2.0,5.0,89,0.00,OVC,,0.00,WeatherDisplay:10.37,2013-01-17 12:50:00,
2013-01-17 08:00:00,33.3,30.1,29.97,West,276,0.0,6.0,88,0.00,OVC,,0.00,WeatherDisplay:10.37,2013-01-17 13:00:00,
2013-01-17 08:10:00,34.3,30.3,29.98,WSW,245,0.0,5.0,85,0.00,BKN,,0.00,WeatherDisplay:10.37,2013-01-17 13:10:00,
2013-01-17 08:20:00,34.3,30.5,29.98,WSW,242,0.0,0.0,86,0.00,BKN,,0.00,WeatherDisplay:10.37,2013-01-17 13:20:00,
2013-01-17 08:30:00,34.8,30.5,29.98,WSW,247,2.0,6.0,84,0.00,BKN,,0.00,WeatherDisplay:10.37,2013-01-17 13:30:00,
2013-01-17 08:40:00,35.2,30.6,29.98,South,189,0.0,5.0,83,0.00,BKN,,0.00,WeatherDisplay:10.37,2013-01-17 13:40:00,
2013-01-17 08:50:00,36.2,31.3,29.99,SW,220,0.0,5.0,82,0.00,BKN,,0.00,WeatherDisplay:10.37,2013-01-17 13:50:00,
2013-01-17 09:00:00,36.9,30.7,29.99,West,270,1.0,9.0,78,0.00,OVC,,0.00,WeatherDisplay:10.37,2013-01-17 14:00:00,
2013-01-17 09:10:00,37.1,30.9,29.99,SW,236,0.0,11.0,78,0.00,OVC,,0.00,WeatherDisplay:10.37,2013-01-17 14:10:00,
2013-01-17 09:20:00,36.9,30.7,29.99,WSW,241,8.0,12.0,78,0.00,OVC,,0.00,WeatherDisplay:10.37,2013-01-17 14:20:00,
2013-01-17 09:30:00,36.8,30.3,29.99,WSW,239,3.0,6.0,77,0.00,OVC,,0.00,WeatherDisplay:10.37,2013-01-17 14:30:00,
2013-01-17 09:40:00,37.0,30.4,29.99,WSW,247,5.0,6.0,77,0.00,OVC,,0.00,WeatherDisplay:10.37,2013-01-17 14:40:00,
2013-01-17 09:50:00,37.1,30.6,30.00,WSW,249,5.0,11.0,77,0.00,OVC,,0.00,WeatherDisplay:10.37,2013-01-17 14:50:00,
2013-01-17 10:00:00,37.1,30.9,30.00,WSW,252,2.0,12.0,78,0.00,OVC,,0.00,WeatherDisplay:10.37,2013-01-17 15:00:00,
2013-01-17 10:10:00,37.0,30.8,30.00,WSW,247,6.0,11.0,78,0.00,OVC,,0.00,WeatherDisplay:10.37,2013-01-17 15:10:00,
2013-01-17 10:20:00,36.8,30.9,30.01,WSW,245,3.0,8.0,79,0.00,OVC,,0.00,WeatherDisplay:10.37,2013-01-17 15:20:00,
2013-01-17 10:30:00,36.7,31.1,30.01,West,265,1.0,9.0,80,0.00,OVC,,0.00,WeatherDisplay:10.37,2013-01-17 15:30:00,
2013-01-17 10:40:00,37.0,31.1,30.02,West,268,1.0,14.0,79,0.00,OVC,,0.00,WeatherDisplay:10.37,2013-01-17 15:40:00,
2013-01-17 10:50:00,37.3,31.4,30.02,West,277,5.0,8.0,79,0.00,OVC,,0.00,WeatherDisplay:10.37,2013-01-17 15:50:00,
2013-01-17 11:00:00,37.6,31.4,30.02,SW,235,5.0,9.0,78,0.00,OVC,,0.00,WeatherDisplay:10.37,2013-01-17 16:00:00,
2013-01-17 11:10:00,37.7,31.5,30.03,West,266,6.0,11.0,78,0.00,OVC,,0.00,WeatherDisplay:10.37,2013-01-17 16:10:00,
2013-01-17 11:20:00,37.8,31.2,30.03,WNW,288,7.0,15.0,77,0.00,OVC,,0.00,WeatherDisplay:10.37,2013-01-17 16:20:00,
2013-01-17 11:30:00,37.9,30.4,30.03,WNW,296,10.0,15.0,74,0.00,OVC,,0.00,WeatherDisplay:10.37,2013-01-17 16:30:00,
2013-01-17 11:40:00,38.1,30.2,30.03,West,279,9.0,20.0,73,0.00,OVC,,0.00,WeatherDisplay:10.37,2013-01-17 16:40:00,
2013-01-17 11:50:00,37.7,29.9,30.03,WNW,288,9.0,18.0,73,0.00,OVC,,0.00,WeatherDisplay:10.37,2013-01-17 16:50:00,
2013-01-17 12:00:00,37.6,29.0,30.03,West,271,12.0,27.0,71,0.00,OVC,,0.00,WeatherDisplay:10.37,2013-01-17 17:00:00,
2013-01-17 12:10:00,37.7,29.2,30.03,West,279,12.0,21.0,71,0.00,OVC,,0.00,WeatherDisplay:10.37,2013-01-17 17:10:00,
2013-01-17 12:20:00,37.7,29.5,30.03,WNW,289,15.0,24.0,72,0.00,OVC,,0.00,WeatherDisplay:10.37,2013-01-17 17:20:00,
2013-01-17 12:30:00,37.3,29.4,30.03,NW,311,10.0,23.0,73,0.00,OVC,,0.00,WeatherDisplay:10.37,2013-01-17 17:30:00,
2013-01-17 12:40:00,36.5,29.0,30.04,WNW,284,16.0,32.0,74,0.00,OVC,,0.00,WeatherDisplay:10.37,2013-01-17 17:40:00,
2013-01-17 12:50:00,36.2,28.7,30.05,WNW,288,15.0,20.0,74,0.00,OVC,,0.00,WeatherDisplay:10.37,2013-01-17 17:50:00,
2013-01-17 13:00:00,35.9,27.4,30.05,NW,307,13.0,23.0,71,0.00,OVC,,0.00,WeatherDisplay:10.37,2013-01-17 18:00:00,
2013-01-17 13:10:00,36.2,27.7,30.05,WNW,289,14.0,21.0,71,0.00,OVC,,0.00,WeatherDisplay:10.37,2013-01-17 18:10:00,
2013-01-17 13:20:00,35.8,26.2,30.06,WNW,292,12.0,24.0,68,0.00,OVC,,0.00,WeatherDisplay:10.37,2013-01-17 18:20:00,
2013-01-17 13:30:00,35.4,25.9,30.06,West,276,12.0,18.0,68,0.00,OVC,,0.00,WeatherDisplay:10.37,2013-01-17 18:30:00,
2013-01-17 13:40:00,35.4,26.3,30.06,WNW,288,7.0,17.0,69,0.00,OVC,,0.00,WeatherDisplay:10.37,2013-01-17 18:40:00,
2013-01-17 13:50:00,34.9,25.4,30.06,West,276,10.0,20.0,68,0.00,OVC,,0.00,WeatherDisplay:10.37,2013-01-17 18:50:00,
2013-01-17 14:00:00,34.5,25.0,30.06,WNW,288,13.0,21.0,68,0.00,OVC,,0.00,WeatherDisplay:10.37,2013-01-17 19:00:00,
2013-01-17 14:10:00,34.0,24.9,30.07,WNW,294,14.0,23.0,69,0.00,OVC,,0.00,WeatherDisplay:10.37,2013-01-17 19:10:00,
2013-01-17 14:20:00,33.7,24.2,30.08,WNW,287,10.0,20.0,68,0.00,OVC,,0.00,WeatherDisplay:10.37,2013-01-17 19:20:00,
2013-01-17 14:30:00,33.7,25.0,30.07,WNW,297,7.0,15.0,70,0.00,OVC,,0.00,WeatherDisplay:10.37,2013-01-17 19:30:00,
2013-01-17 14:40:00,33.5,24.4,30.08,WNW,285,9.0,17.0,69,0.00,OVC,,0.00,WeatherDisplay:10.37,2013-01-17 19:40:00,
2013-01-17 14:50:00,33.5,24.1,30.09,WNW,287,14.0,20.0,68,0.00,OVC,,0.00,WeatherDisplay:10.37,2013-01-17 19:50:00,
2013-01-17 15:00:00,33.3,23.9,30.09,NW,305,8.0,14.0,68,0.00,OVC,,0.00,WeatherDisplay:10.37,2013-01-17 20:00:00,
2013-01-17 15:10:00,32.6,23.2,30.10,WNW,291,5.0,18.0,68,0.00,OVC,,0.00,WeatherDisplay:10.37,2013-01-17 20:10:00,
2013-01-17 15:20:00,31.9,22.5,30.09,WNW,287,5.0,17.0,68,0.00,OVC,,0.00,WeatherDisplay:10.37,2013-01-17 20:20:00,
2013-01-17 15:30:00,31.4,21.7,30.10,WNW,286,5.0,21.0,67,0.00,OVC,,0.00,WeatherDisplay:10.37,2013-01-17 20:30:00,
2013-01-17 15:40:00,31.2,21.9,30.10,WNW,291,9.0,12.0,68,0.00,OVC,,0.00,WeatherDisplay:10.37,2013-01-17 20:40:00,
2013-01-17 15:50:00,30.8,20.8,30.10,WNW,299,12.0,25.0,66,0.00,OVC,,0.00,WeatherDisplay:10.37,2013-01-17 20:50:00,
2013-01-17 16:00:00,30.3,20.3,30.11,WNW,297,14.0,18.0,66,0.00,OVC,,0.00,WeatherDisplay:10.37,2013-01-17 21:00:00,
2013-01-17 16:10:00,29.9,19.2,30.11,NW,304,14.0,18.0,64,0.00,BKN,,0.00,WeatherDisplay:10.37,2013-01-17 21:10:00,
2013-01-17 16:20:00,29.5,18.8,30.11,WNW,297,7.0,18.0,64,0.00,BKN,,0.00,WeatherDisplay:10.37,2013-01-17 21:20:00,
2013-01-17 16:30:00,29.2,18.5,30.11,WNW,296,8.0,17.0,64,0.00,BKN,,0.00,WeatherDisplay:10.37,2013-01-17 21:30:00,
2013-01-17 16:40:00,28.8,18.2,30.11,WNW,297,14.0,18.0,64,0.00,BKN,,0.00,WeatherDisplay:10.37,2013-01-17 21:40:00,
2013-01-17 16:50:00,28.2,15.7,30.12,WNW,295,13.0,25.0,59,0.00,BKN,,0.00,WeatherDisplay:10.37,2013-01-17 21:50:00,
2013-01-17 17:00:00,27.9,15.0,30.13,WNW,285,14.0,23.0,58,0.00,BKN,,0.00,WeatherDisplay:10.37,2013-01-17 22:00:00,
2013-01-17 17:10:00,27.6,14.7,30.13,WNW,296,8.0,23.0,58,0.00,BKN,,0.00,WeatherDisplay:10.37,2013-01-17 22:10:00,
2013-01-17 17:20:00,27.5,15.0,30.13,NW,311,3.0,12.0,59,0.00,BKN,,0.00,WeatherDisplay:10.37,2013-01-17 22:20:00,
2013-01-17 17:30:00,27.4,14.5,30.13,WNW,303,6.0,12.0,58,0.00,BKN,,0.00,WeatherDisplay:10.37,2013-01-17 22:30:00,
2013-01-17 17:40:00,27.2,14.8,30.14,WNW,297,8.0,14.0,59,0.00,BKN,,0.00,WeatherDisplay:10.37,2013-01-17 22:40:00,
2013-01-17 17:50:00,27.1,15.0,30.14,WNW,298,6.0,9.0,60,0.00,BKN,,0.00,WeatherDisplay:10.37,2013-01-17 22:50:00,
2013-01-17 18:00:00,27.0,15.0,30.15,NW,308,3.0,9.0,60,0.00,BKN,,0.00,WeatherDisplay:10.37,2013-01-17 23:00:00,
2013-01-17 18:10:00,26.9,14.1,30.15,WNW,301,8.0,12.0,58,0.00,BKN,,0.00,WeatherDisplay:10.37,2013-01-17 23:10:00,
2013-01-17 18:20:00,26.7,14.3,30.16,WNW,302,15.0,15.0,59,0.00,BKN,,0.00,WeatherDisplay:10.37,2013-01-17 23:20:00,
2013-01-17 18:30:00,26.5,12.9,30.16,NW,309,14.0,17.0,56,0.00,BKN,,0.00,WeatherDisplay:10.37,2013-01-17 23:30:00,
2013-01-17 18:40:00,26.3,12.3,30.16,WNW,286,16.0,20.0,55,0.00,BKN,,0.00,WeatherDisplay:10.37,2013-01-17 23:40:00,
2013-01-17 18:50:00,26.2,13.0,30.16,WNW,302,12.0,21.0,57,0.00,BKN,,0.00,WeatherDisplay:10.37,2013-01-17 23:50:00,
2013-01-17 19:00:00,26.0,12.4,30.16,WNW,295,9.0,18.0,56,0.00,BKN,,0.00,WeatherDisplay:10.37,2013-01-18 00:00:00,
2013-01-17 19:10:00,25.8,12.2,30.17,WNW,290,8.0,14.0,56,0.00,BKN,,0.00,WeatherDisplay:10.37,2013-01-18 00:10:00,
2013-01-17 19:20:00,25.7,12.2,30.17,WNW,301,8.0,17.0,56,0.00,BKN,,0.00,WeatherDisplay:10.37,2013-01-18 00:20:00,
2013-01-17 19:30:00,25.6,12.5,30.17,WNW,296,12.0,17.0,57,0.00,BKN,,0.00,WeatherDisplay:10.37,2013-01-18 00:30:00,
2013-01-17 19:40:00,25.5,12.0,30.18,WNW,297,13.0,15.0,56,0.00,BKN,,0.00,WeatherDisplay:10.37,2013-01-18 00:40:00,
2013-01-17 19:50:00,25.4,12.3,30.17,NW,316,9.0,11.0,57,0.00,BKN,,0.00,WeatherDisplay:10.37,2013-01-18 00:50:00,
2013-01-17 20:00:00,25.3,12.2,30.17,WNW,302,2.0,14.0,57,0.00,BKN,,0.00,WeatherDisplay:10.37,2013-01-18 01:00:00,
2013-01-17 20:10:00,25.2,12.5,30.16,NNW,343,9.0,14.0,58,0.00,BKN,,0.00,WeatherDisplay:10.37,2013-01-18 01:10:00,
2013-01-17 20:20:00,25.1,11.6,30.15,WNW,297,8.0,12.0,56,0.00,BKN,,0.00,WeatherDisplay:10.37,2013-01-18 01:20:00,
2013-01-17 20:30:00,25.0,11.9,30.16,NW,318,5.0,9.0,57,0.00,BKN,,0.00,WeatherDisplay:10.37,2013-01-18 01:30:00,
2013-01-17 20:40:00,24.9,11.8,30.15,WNW,298,8.0,14.0,57,0.00,BKN,,0.00,WeatherDisplay:10.37,2013-01-18 01:40:00,
2013-01-17 20:50:00,24.8,12.5,30.15,NW,326,6.0,9.0,59,0.00,BKN,,0.00,WeatherDisplay:10.37,2013-01-18 01:50:00,
2013-01-17 21:00:00,24.8,12.1,30.15,NNW,347,5.0,8.0,58,0.00,BKN,,0.00,WeatherDisplay:10.37,2013-01-18 02:00:00,
2013-01-17 21:10:00,24.7,12.0,30.13,NW,320,6.0,9.0,58,0.00,BKN,,0.00,WeatherDisplay:10.37,2013-01-18 02:10:00,
2013-01-17 21:20:00,24.6,11.5,30.13,NW,305,2.0,8.0,57,0.00,BKN,,0.00,WeatherDisplay:10.37,2013-01-18 02:20:00,
2013-01-17 21:30:00,24.5,11.4,30.14,WNW,295,5.0,8.0,57,0.00,BKN,,0.00,WeatherDisplay:10.37,2013-01-18 02:30:00,
2013-01-17 21:40:00,24.4,11.7,30.13,WNW,287,3.0,6.0,58,0.00,BKN,,0.00,WeatherDisplay:10.37,2013-01-18 02:40:00,
2013-01-17 21:50:00,24.4,12.1,30.12,NNW,330,2.0,9.0,59,0.00,BKN,,0.00,WeatherDisplay:10.37,2013-01-18 02:50:00,
2013-01-17 22:00:00,24.3,11.6,30.13,NNW,331,3.0,6.0,58,0.00,BKN,,0.00,WeatherDisplay:10.37,2013-01-18 03:00:00,
2013-01-17 22:10:00,24.2,11.5,30.13,NW,326,2.0,6.0,58,0.00,OVC,,0.00,WeatherDisplay:10.37,2013-01-18 03:10:00,
2013-01-17 22:20:00,24.1,11.9,30.12,NW,309,2.0,5.0,59,0.00,OVC,,0.00,WeatherDisplay:10.37,2013-01-18 03:20:00,
2013-01-17 22:30:00,24.0,12.5,30.11,NW,323,0.0,5.0,61,0.00,OVC,,0.00,WeatherDisplay:10.37,2013-01-18 03:30:00,
2013-01-17 22:40:00,23.9,12.0,30.11,WNW,303,1.0,5.0,60,0.00,OVC,,0.00,WeatherDisplay:10.37,2013-01-18 03:40:00,
2013-01-17 22:50:00,23.8,11.9,30.11,NW,310,6.0,8.0,60,0.00,OVC,,0.00,WeatherDisplay:10.37,2013-01-18 03:50:00,
2013-01-17 23:00:00,23.8,12.7,30.11,NW,314,6.0,8.0,62,0.00,OVC,,0.00,WeatherDisplay:10.37,2013-01-18 04:00:00,
2013-01-17 23:10:00,23.8,11.9,30.13,WNW,291,1.0,9.0,60,0.00,OVC,,0.00,WeatherDisplay:10.37,2013-01-18 04:10:00,
2013-01-17 23:20:00,23.7,11.8,30.12,NW,312,8.0,12.0,60,0.00,OVC,,0.00,WeatherDisplay:10.37,2013-01-18 04:20:00,
2013-01-17 23:30:00,23.6,11.4,30.11,NW,309,7.0,12.0,59,0.00,OVC,,0.00,WeatherDisplay:10.37,2013-01-18 04:30:00,
2013-01-17 23:40:00,23.5,11.6,30.10,WNW,300,6.0,11.0,60,0.00,OVC,,0.00,WeatherDisplay:10.37,2013-01-18 04:40:00,
2013-01-17 23:50:00,23.3,11.1,30.11,WNW,301,14.0,14.0,59,0.00,OVC,,0.00,WeatherDisplay:10.37,2013-01-18 04:50:00,